Location: Pallagorio
(39.3000°N, 16.9000°E)
Time: 01:27:16
(UTC+00:00)

Cosmos 1328 - Pass Details

Date: 24 January 2021
Orbit: 528 x 554 km, 82.5° (Epoch: 08 March)

Event Time Altitude Azimuth Distance (km) Brightness Sun altitude
Rises 17:22:19 0° 184° (S) 2,713 7.6 -15.2°
Reaches altitude 10° 17:24:29 10° 184° (S) 1,821 6.7 -15.7°
Maximum altitude 17:28:29 83° 97° (E) 558 3.7 -16.4°
Drops below altitude 10° 17:32:30 10° 9° (N) 1,822 6.3 -17.2°
Enters shadow 17:33:38 - 9° (N) 2,287 6.8 -17.4°
